Regional Weather Roundup
Issued by NWS

Home | Current Version | Previous Version | Graphics & Text | Print | Product List | Glossary On
Versions: 1 2 3 4 5 6 7 8 9 10 11 12 13 14 15 16 17 18 19 20 21 22 23 24 25 26 27 28 29 30 31 32 33 34 35 36 37 38 39 40 41 42 43 44 45 46 47 48 49 50
000
ASUS43 KBIS 230120
RWRND

NORTH DAKOTA REGIONAL WEATHER ROUNDUP
NATIONAL WEATHER SERVICE BISMARCK ND
800 PM CDT FRI MAY 22 2015

NOTE: "FAIR" INDICATES FEW OR NO CLOUDS BELOW 12,000 FEET WITH NO
SIGNIFICANT WEATHER AND/OR OBSTRUCTIONS TO VISIBILITY.


NDZ001>003-009>011-017-230200-
NORTHWEST NORTH DAKOTA

CITY           SKY/WX    TMP DP  RH WIND       PRES   REMARKS
WILLISTON      MOSUNNY   73  34  23 SE13      30.03S
MINOT          MOSUNNY   73  32  22 S9        30.06S
MINOT AFB      SUNNY     76  34  21 S12       30.05S
$$

NDZ018>021-031>035-040>046-230200-
SOUTHWEST NORTH DAKOTA

CITY           SKY/WX    TMP DP  RH WIND       PRES   REMARKS
BISMARCK       MOSUNNY   71  38  29 S13       30.07S
DICKINSON      MOSUNNY   66  33  29 SE17G28   30.04S
GARRISON         N/A     71  37  28 SE10      30.07S
HETTINGER ARPT PTSUNNY   64  35  34 SE20      30.06S
$$

NDZ004>008-012>016-024-026-027-054-230200-
NORTHEAST NORTH DAKOTA

CITY           SKY/WX    TMP DP  RH WIND       PRES   REMARKS
GRAND FORKS    PTCLDY    72  42  34 S8        30.10S
GRND FRKS AFB  CLEAR     73  41  32 S6        30.10F
DEVILS LAKE    SUNNY     70  34  26 S9        30.10S
$$

NDZ022-023-025-028>030-036>039-047>053-230200-
SOUTHEAST NORTH DAKOTA

CITY           SKY/WX    TMP DP  RH WIND       PRES   REMARKS
FARGO          CLEAR     72  39  30 SE7       30.12S
JAMESTOWN      SUNNY     68  39  34 SE8       30.10S
$$




USA.gov is the U.S. government's official web portal to all federal, state and local government web resources and services.